sat.trackr.live / text

‹ back to catalog

STARLINK-3786

NORAD 52263 · 2022-041C

PAYLOAD ACTIVE UNKNOWN

§ Identity

Operator
Country
US
Launch date
2022-04-21
Launch site
AFETR
Launch vehicle
Mass (kg)
RCS (m²)

Purposes: comms

External: N2YO · Heavens-Above · Gunter

§ Orbital elements

Epoch: 2026-05-25T03:45:34.396704Z

Period
95.44 min
Inclination
53.2137°
Eccentricity
0.0000971
Mean motion
15.08825119 rev/d
Perigee alt
539.1 km
Apogee alt
540.5 km
Semi-major
6,917.9 km
B*
1.9706e-4
RAAN
125.8461°
Arg perigee
67.2643°
Mean anomaly
292.8451°
Rev number
22,590

§ Raw data

STARLINK-37861 52263U 22041C   26145.15664811  .00002849  00000+0  19706-3 0  99952 52263  53.2137 125.8461 0000971  67.2643 292.8451 15.08825119225902

JSON: /api/v1/satellites/52263 · /tle

For live sub-satellite position, see the globe view (requires WebGL).

§ Visibility from observer

Set your observer location to see the next 7 days of passes ≥ 10°. The values pass through the URL so the page stays shareable.

No JS? Fill the form by hand. The geolocation button needs JavaScript.